Wind_Speed
20 18 16 13 11 11 11 10 9 8 8 8 7 5 3 3 7 9 10 10 9 10 12 13 15 17 18 22 25 27 30 36 42 38 35 30 26 22 20 16 13 9 7
20 19 17 15 13 11 11 11 10 9 9 8 8 7 5 4 7 12 11 11 10 11 13 12 17 19 16 15 11 23 30 36 40 42 35 30 25 21 17 16 13 10 6
23 20 19 17 14 12 12 12 11 11 10 9 9 9 6 5 9 13 12 12 10 10 13 17 14 16 15 12 12 19 31 38 37 39 35 32 27 22 20 16 12 10 8
24 23 21 17 15 13 12 13 13 12 11 10 9 10 9 7 10 14 14 13 11 12 12 13 14 15 16 15 15 20 30 39 40 40 39 34 27 23 20 18 14 12 8
25 24 21 18 18 16 15 13 14 14 13 12 11 11 11 9 9 12 14 13 13 12 14 14 13 14 16 15 12 14 26 33 37 35 32 28 29 28 24 21 17 15 13
25 23 22 22 21 19 17 15 14 15 15 14 12 12 12 13 11 12 13 12 13 14 14 15 17 16 17 17 15 11 15 24 30 32 34 31 31 29 27 23 20 18 16
25 25 24 23 22 20 19 17 16 15 15 14 13 13 13 15 14 13 12 13 13 13 14 15 20 20 21 22 18 17 17 21 17 17 22 26 23 28 25 23 23 19 14
25 25 24 23 22 21 20 19 17 15 15 15 15 14 14 17 17 15 14 13 15 14 15 13 16 22 24 26 22 22 22 24 22 20 23 23 25 24 23 26 25 22 16
23 24 23 23 21 21 20 18 16 16 15 16 15 14 14 17 18 18 16 15 15 15 15 15 17 20 25 28 27 25 20 20 20 21 20 19 24 28 27 25 25 24 21
21 20 21 21 20 18 18 17 17 16 16 16 16 14 14 16 19 18 19 18 16 18 17 16 19 21 24 27 27 28 24 22 19 19 19 18 17 23 23 23 24 24 23
19 19 19 18 18 17 17 17 16 14 14 13 13 13 13 15 19 19 18 19 19 18 19 18 17 21 24 25 27 27 23 21 19 19 20 19 19 20 21 23 22 24 23
18 17 17 17 16 16 15 15 14 14 13 13 11 9 10 15 19 21 17 17 18 20 21 16 14 20 26 25 25 26 24 22 19 21 23 23 22 23 23 23 24 25 26
17 16 15 15 14 14 14 14 14 13 13 12 9 7 8 11 14 16 14 18 16 18 20 18 16 21 26 25 25 27 26 22 21 24 25 23 21 20 21 23 25 27 27
19 17 14 12 12 12 12 13 13 12 12 11 11 11 10 10 12 16 14 15 12 15 16 17 17 16 23 25 25 26 26 26 25 25 24 23 22 21 20 23 25 27 29
19 17 14 12 10 9 9 10 11 12 12 14 13 13 12 12 11 13 12 9 8 18 18 18 18 18 18 20 24 26 26 28 28 27 27 27 27 25 26 25 26 26 30
15 12 10 8 7 6 6 6 7 9 11 12 14 15 15 13 14 14 12 11 11 9 6 11 19 18 19 20 21 22 23 27 28 29 30 32 31 30 30 29 31 31 31
11 9 7 6 5 5 5 5 5 6 7 10 12 16 17 16 16 15 15 13 13 13 13 10 9 8 6 18 22 24 20 19 25 31 33 33 30 31 32 33 34 34 34
10 7 6 5 5 5 7 7 7 7 6 6 9 12 14 17 18 18 17 15 14 14 15 15 13 10 12 13 14 19 28 29 30 28 31 31 28 30 30 33 35 37 38
8 5 3 2 3 4 5 6 8 9 8 9 8 9 8 10 14 18 21 22 20 17 15 14 15 16 15 16 17 19 18 22 29 31 30 32 32 34 34 34 35 37 40
5 2 1 2 4 6 6 7 7 7 8 9 9 9 9 9 9 10 15 17 18 18 18 19 17 16 17 16 17 15 15 16 18 21 25 27 29 30 32 33 33 36 39
3 1 0 3 4 5 5 6 7 8 8 8 9 10 11 11 11 11 11 11 13 15 16 18 18 17 17 18 18 19 20 19 22 21 19 22 25 29 30 32 34 36 37
5 3 2 1 2 3 3 3 4 6 7 8 8 9 11 11 12 12 12 13 14 14 14 14 17 21 20 20 19 20 20 20 20 20 22 22 22 24 27 30 31 34 36
6 5 4 3 2 1 2 2 3 5 7 8 9 10 10 10 12 12 13 13 14 15 16 17 18 18 17 16 16 17 19 19 19 20 22 24 25 24 24 26 29 31 34
5 4 3 1 2 3 3 4 5 6 7 8 9 10 12 12 13 13 14 15 15 16 16 17 17 18 19 20 20 18 19 18 18 19 20 22 23 24 25 25 26 29 31
5 3 2 1 2 4 5 6 7 8 9 10 11 11 12 12 13 14 15 17 17 18 18 18 18 19 19 19 19 20 23 23 20 19 19 20 21 22 24 25 25 26 27
3 1 2 3 4 5 6 8 9 10 11 12 12 13 14 14 15 15 15 16 16 16 17 17 19 20 20 20 20 20 20 19 21 21 20 22 22 22 23 25 26 26 26
Wind_Direction
197 198 201 201 200 197 199 203 203 204 198 200 204 208 207 143 154 136 134 135 139 151 150 140 169 174 167 163 166 176 176 169 157 149 152 154 160 163 161 164 151 156 138
200 201 203 202 202 197 200 205 201 202 202 199 207 210 214 183 160 151 149 140 133 152 165 147 155 161 156 150 163 177 183 179 172 160 159 160 169 174 174 175 167 160 162
203 203 207 205 204 201 202 207 205 203 207 207 206 208 206 207 178 166 164 158 145 146 158 160 164 175 182 173 171 182 179 176 168 166 167 175 176 181 183 182 177 184 189
207 208 211 209 207 208 208 209 209 206 209 211 207 207 204 203 193 182 180 184 178 179 171 171 185 188 186 189 178 182 185 181 179 179 175 176 181 185 190 190 187 196 202
211 214 213 211 211 213 214 214 213 210 209 216 213 208 208 209 203 200 192 198 199 200 200 197 188 194 185 190 193 184 190 193 191 183 177 184 193 194 194 198 203 201 204
214 217 216 214 214 215 215 216 218 215 215 216 220 217 212 212 204 207 206 207 205 206 209 209 203 197 191 185 187 196 206 185 190 188 200 203 200 201 203 206 206 202 194
214 216 217 216 216 215 215 216 217 217 218 219 222 225 219 215 210 209 220 211 206 211 211 220 214 200 192 188 186 194 214 208 212 225 223 211 223 212 214 216 219 219 220
215 217 217 217 215 215 215 217 217 217 217 218 222 227 228 218 214 209 215 220 203 207 212 215 213 208 197 197 199 194 197 208 217 223 231 238 230 223 220 225 218 215 212
213 215 215 215 214 214 214 215 215 217 218 218 220 228 233 222 217 212 216 220 220 213 211 214 210 211 207 200 204 197 201 213 218 227 230 232 239 231 221 224 219 219 217
208 207 206 206 207 209 208 209 211 214 217 219 220 223 221 218 216 214 220 221 224 222 218 216 217 215 214 214 209 212 221 219 230 230 223 226 223 232 235 238 240 230 226
192 191 191 193 196 200 203 206 209 213 218 222 229 236 230 224 222 213 217 234 227 230 226 221 224 226 218 215 218 218 226 230 234 232 228 221 223 225 225 228 231 236 240
169 172 177 183 188 193 197 201 204 209 213 216 222 232 229 231 220 215 218 225 231 233 235 231 218 228 226 217 222 219 225 232 232 232 231 227 233 235 230 231 232 230 228
152 158 166 173 180 186 191 197 202 205 205 202 204 219 234 234 232 215 226 226 236 247 231 238 225 241 228 218 224 224 230 225 232 229 231 238 248 246 240 235 231 228 227
129 133 142 155 168 179 188 196 204 208 209 202 207 218 226 239 219 213 235 233 245 242 238 228 231 231 226 225 224 223 227 227 234 232 236 243 245 242 236 236 233 230 227
123 123 126 131 140 158 178 195 203 210 214 212 209 220 225 229 224 228 241 242 248 265 234 228 225 220 232 232 226 236 229 224 225 232 240 247 246 243 243 236 233 233 233
121 122 127 137 148 158 170 187 201 212 217 218 217 213 225 228 229 230 230 232 228 218 209 241 239 238 226 237 244 238 232 227 230 235 243 250 250 245 243 241 235 232 232
118 123 136 157 184 201 207 212 214 213 220 223 226 226 225 229 236 238 234 235 240 230 222 217 246 252 261 245 240 253 250 246 253 245 248 251 252 250 246 243 240 237 234
114 120 136 160 185 207 221 227 226 229 229 232 231 233 231 232 232 242 248 247 243 240 240 244 236 235 253 251 254 250 242 243 253 244 254 252 251 251 252 251 246 242 239
115 118 139 186 209 221 230 235 236 234 232 235 238 244 238 235 234 236 238 239 241 242 247 250 249 239 241 257 259 256 250 244 242 246 250 251 253 256 255 250 253 249 246
106 119 210 256 250 244 243 245 246 245 240 236 234 237 247 248 242 238 236 238 241 241 241 243 251 259 246 247 248 251 262 262 256 253 252 251 250 250 252 253 256 253 253
113 104 283 261 259 253 250 248 249 248 248 247 246 247 246 246 249 247 240 241 242 242 240 241 245 247 246 246 251 259 264 269 268 269 269 263 258 255 254 254 253 254 257
109 106 119 191 245 262 266 269 271 268 267 262 261 260 256 255 253 252 252 248 246 246 251 253 249 249 251 255 256 256 261 267 268 272 269 268 269 265 261 257 256 257 256
119 118 113 103 88 38 3 331 297 285 282 282 282 278 266 255 253 254 255 255 255 257 255 252 251 254 256 256 257 260 261 265 267 270 274 269 265 266 266 264 262 260 257
129 134 131 89 37 9 354 336 319 309 300 291 284 280 279 276 274 269 266 265 264 261 259 258 260 261 256 252 251 253 257 261 265 269 273 272 267 266 267 267 265 263 264
134 131 116 70 10 351 339 333 326 317 311 305 299 294 289 285 281 278 276 274 271 269 270 272 269 267 264 262 261 260 254 252 256 262 267 272 275 271 268 269 269 269 267
139 101 23 359 347 341 329 322 320 320 316 310 306 302 299 294 291 287 281 278 277 276 275 272 270 270 269 268 267 262 259 261 252 252 261 267 270 273 273 271 271 271 271
Height
1486 1489 1492 1494 1495 1496 1498 1500 1501 1502 1503 1504 1505 1505 1505 1505 1504 1505 1506 1507 1508 1510 1511 1512 1515 1518 1519 1521 1523 1524 1526 1527 1527 1537 1542 1547 1550 1554 1556 1559 1560 1562 1563
1484 1486 1489 1491 1493 1494 1496 1498 1499 1500 1502 1503 1504 1505 1505 1505 1504 1505 1506 1508 1508 1510 1512 1514 1515 1519 1522 1523 1524 1526 1528 1529 1529 1535 1543 1547 1551 1554 1556 1558 1559 1561 1563
1480 1482 1486 1488 1490 1492 1494 1496 1497 1498 1500 1501 1502 1504 1504 1506 1505 1505 1506 1508 1510 1511 1513 1515 1518 1520 1523 1524 1525 1526 1528 1532 1535 1536 1542 1548 1551 1554 1556 1558 1560 1562 1563
1476 1479 1482 1486 1488 1490 1492 1494 1495 1496 1497 1499 1500 1502 1504 1505 1506 1506 1506 1508 1510 1512 1514 1516 1518 1520 1522 1524 1525 1528 1530 1533 1536 1537 1541 1545 1550 1553 1555 1557 1559 1561 1562
1472 1475 1479 1483 1485 1487 1489 1491 1493 1494 1495 1497 1498 1500 1502 1503 1505 1506 1506 1507 1510 1512 1513 1515 1517 1519 1522 1524 1526 1527 1530 1532 1536 1539 1543 1546 1548 1551 1554 1556 1559 1561 1562
1468 1472 1476 1477 1480 1483 1486 1488 1491 1492 1493 1494 1496 1498 1499 1501 1503 1505 1505 1506 1508 1510 1512 1514 1516 1518 1521 1524 1526 1529 1532 1531 1535 1538 1540 1542 1545 1547 1552 1554 1557 1558 1561
1463 1467 1470 1472 1476 1479 1482 1484 1487 1488 1491 1492 1494 1495 1496 1499 1501 1503 1505 1505 1506 1508 1509 1511 1514 1516 1519 1523 1525 1529 1532 1535 1537 1538 1540 1542 1543 1545 1549 1552 1555 1557 1559
1459 1463 1465 1468 1471 1474 1477 1480 1483 1485 1487 1490 1491 1492 1492 1494 1497 1500 1501 1503 1504 1506 1507 1508 1511 1514 1516 1520 1523 1526 1529 1532 1535 1538 1540 1541 1543 1545 1547 1550 1552 1554 1557
1455 1458 1460 1464 1467 1471 1473 1476 1479 1481 1483 1486 1487 1488 1490 1491 1493 1496 1498 1500 1502 1503 1505 1505 1508 1511 1514 1517 1520 1523 1526 1528 1531 1533 1535 1537 1539 1542 1544 1546 1549 1552 1554
1450 1453 1457 1460 1463 1467 1470 1472 1475 1477 1479 1482 1482 1484 1486 1487 1489 1492 1494 1497 1497 1500 1502 1503 1505 1507 1510 1514 1517 1520 1523 1525 1527 1529 1530 1533 1535 1538 1541 1544 1546 1548 1550
1447 1450 1454 1457 1461 1464 1467 1470 1472 1475 1477 1479 1480 1482 1483 1484 1486 1487 1490 1492 1494 1495 1497 1499 1501 1504 1506 1509 1513 1516 1519 1522 1524 1525 1527 1529 1531 1533 1536 1539 1542 1544 1547
1445 1448 1451 1455 1458 1461 1464 1467 1470 1472 1474 1475 1476 1478 1479 1480 1482 1484 1486 1489 1490 1491 1493 1496 1497 1500 1502 1505 1508 1512 1516 1518 1519 1522 1524 1525 1526 1528 1531 1533 1536 1538 1541
1445 1447 1451 1454 1456 1459 1462 1465 1467 1469 1471 1472 1474 1475 1477 1478 1479 1483 1484 1486 1487 1488 1489 1491 1493 1495 1497 1501 1504 1507 1510 1512 1515 1517 1519 1521 1523 1525 1526 1528 1531 1533 1536
1445 1448 1451 1454 1456 1458 1460 1463 1465 1467 1468 1469 1471 1472 1473 1476 1477 1480 1482 1483 1484 1484 1485 1487 1488 1491 1493 1495 1499 1502 1505 1508 1511 1513 1515 1517 1518 1519 1521 1524 1525 1527 1530
1447 1449 1452 1454 1456 1458 1459 1461 1462 1464 1465 1466 1468 1470 1471 1473 1475 1477 1479 1479 1479 1480 1481 1482 1484 1486 1488 1490 1493 1496 1498 1501 1504 1508 1509 1511 1512 1515 1516 1518 1520 1523 1524
1448 1450 1452 1454 1456 1457 1458 1460 1461 1462 1462 1463 1465 1467 1469 1470 1472 1474 1476 1476 1477 1478 1478 1479 1480 1482 1483 1487 1489 1491 1492 1496 1499 1502 1503 1504 1505 1507 1508 1510 1512 1515 1517
1448 1450 1452 1454 1455 1456 1457 1458 1459 1460 1460 1461 1462 1464 1465 1466 1468 1470 1472 1473 1474 1475 1476 1477 1478 1479 1480 1481 1484 1486 1487 1491 1493 1495 1496 1497 1499 1500 1502 1503 1505 1507 1509
1447 1449 1451 1452 1453 1454 1454 1456 1456 1457 1457 1458 1459 1461 1461 1462 1464 1466 1467 1469 1471 1472 1472 1473 1474 1475 1476 1476 1477 1478 1481 1483 1485 1487 1489 1490 1492 1494 1495 1496 1498 1499 1501
1445 1447 1449 1449 1450 1451 1452 1452 1453 1454 1454 1457 1457 1459 1457 1458 1459 1461 1463 1464 1466 1467 1467 1468 1469 1470 1471 1472 1472 1473 1473 1474 1476 1478 1480 1481 1483 1485 1486 1487 1489 1492 1494
1443 1445 1446 1447 1448 1449 1449 1450 1450 1450 1451 1453 1454 1454 1454 1455 1456 1457 1458 1458 1460 1461 1462 1464 1465 1466 1466 1467 1468 1468 1469 1469 1469 1470 1472 1473 1474 1475 1476 1479 1480 1482 1484
1441 1442 1443 1445 1446 1447 1446 1446 1447 1447 1449 1450 1450 1450 1451 1452 1453 1454 1455 1454 1455 1456 1456 1458 1459 1460 1461 1462 1463 1463 1463 1464 1464 1465 1465 1465 1466 1466 1468 1470 1471 1473 1475
1438 1440 1442 1444 1445 1445 1444 1443 1443 1445 1446 1447 1447 1447 1448 1448 1449 1450 1451 1451 1450 1451 1452 1452 1453 1454 1455 1456 1456 1457 1458 1458 1458 1458 1458 1458 1458 1459 1460 1461 1462 1463 1465
1437 1439 1442 1443 1444 1443 1442 1442 1442 1443 1444 1444 1443 1444 1445 1445 1445 1445 1446 1445 1445 1445 1446 1447 1447 1448 1449 1449 1450 1450 1451 1452 1453 1452 1451 1451 1451 1451 1451 1452 1453 1454 1454
1437 1439 1440 1441 1441 1442 1441 1442 1442 1442 1442 1442 1441 1441 1442 1441 1441 1441 1441 1440 1440 1440 1440 1440 1440 1441 1442 1442 1443 1444 1444 1445 1445 1445 1445 1445 1444 1444 1444 1444 1445 1445 1445
1437 1438 1439 1439 1439 1440 1441 1441 1441 1441 1440 1440 1440 1439 1438 1438 1438 1437 1437 1436 1435 1434 1434 1434 1434 1434 1434 1434 1435 1436 1436 1437 1438 1438 1438 1438 1437 1437 1437 1437 1437 1437 1438
1435 1436 1437 1438 1438 1438 1440 1440 1440 1439 1438 1438 1437 1436 1434 1434 1433 1432 1432 1431 1430 1429 1429 1428 1428 1428 1427 1427 1427 1427 1428 1428 1429 1431 1431 1431 1431 1430 1430 1429 1430 1430 1430